Anula, Australia

3:27 AM ACST on April 27, 2017 (GMT +0930)
Anula

Weather History for 94120 - January, 2014

Change the Weather History Date:

Tuesday, January 21, 2014

  Actual Average Record
Temperature  
Mean Temperature 83 °F -  
Max Temperature 89 °F 89 °F - ()
Min Temperature 77 °F 76 °F - ()
Cooling Degree Days 18    
Growing Degree Days 33 (Base 50)    
Moisture  
Dew Point 75 °F    
Average Humidity 78    
Maximum Humidity 89    
Minimum Humidity 58    
Precipitation  
Precipitation 0.16 in 0.49 in - ()
Sea Level Pressure  
Sea Level Pressure 29.69 in    
Wind  
Wind Speed 12 mph ()    
Max Wind Speed 26 mph    
Max Gust Speed 34 mph    
Visibility 6.2 miles    
Events Rain    
T = Trace of Precipitation, MM = Missing Value Source: Averaged Metar Reports

Daily Weather History Graph

Daily Weather History Graph

Search for Another Location

Airport or City:

Trip Planner

Search our weather history database for the weather conditions in past years. The results will help you decide how hot, cold, wet, or windy it might be!

Date:

Astronomy

Jan. 21, 2014 Rise Set
Actual Time 6:35 AM ACST 7:19 PM ACST
Civil Twilight 6:12 AM ACST 7:42 PM ACST
Nautical Twilight 5:46 AM ACST 8:08 PM ACST
Astronomical Twilight 5:18 AM ACST 8:36 PM ACST
Moon 10:37 PM ACST (1/21) 10:17 AM ACST (1/21)
Length of Visible Light 13h 29m
Length of Day
12h 44m
Waning Gibbous, 80% of the Moon is Illuminated
Jan 21
Waning Gibbous
Jan 24
Last Quarter
Jan 31
New
Feb 7
First Quarter
Feb 15
Full

Hourly Weather History & Observations

Time (ACST) Temp. Heat Index Dew Point Humidity Pressure Visibility Wind Dir Wind Speed Gust Speed Precip Events Conditions
12:00 AM 80 °F - 77 °F 87% 29.73 in 9 mi West 8.1 mph - -   Haze
12:00 AM 80.6 °F 87.1 °F 77.0 °F 89% 29.74 in 6.2 mi West 8.1 mph - N/A   Mostly Cloudy
12:30 AM 81 °F - 76 °F 80% 29.73 in - West 8.1 mph - -  
12:30 AM 80.6 °F 86.2 °F 75.2 °F 84% 29.71 in 6.2 mi West 8.1 mph - N/A   Mostly Cloudy
1:00 AM 80.6 °F 86.2 °F 75.2 °F 84% 29.71 in - WNW 9.2 mph - N/A   Clear
1:30 AM 80.6 °F 87.1 °F 77.0 °F 89% 29.71 in 6.2 mi WNW 9.2 mph - N/A   Mostly Cloudy
2:00 AM 80.6 °F 87.1 °F 77.0 °F 89% 29.68 in 6.2 mi West 11.5 mph - N/A   Mostly Cloudy
2:30 AM 80.6 °F 87.1 °F 77.0 °F 89% 29.68 in 6.2 mi West 10.4 mph - N/A   Mostly Cloudy
3:00 AM 82 °F - 76 °F 78% 29.69 in 9 mi West 12.7 mph - -   Haze
3:00 AM 82.4 °F 90.9 °F 77.0 °F 84% 29.68 in 6.2 mi West 12.7 mph - N/A   Mostly Cloudy
3:30 AM 82 °F - 76 °F 78% 29.69 in - West 12.7 mph - -  
3:30 AM 82.4 °F 90.9 °F 77.0 °F 84% 29.68 in 6.2 mi West 12.7 mph - N/A   Mostly Cloudy
4:00 AM 82.4 °F 89.5 °F 75.2 °F 79% 29.68 in 6.2 mi West 13.8 mph - N/A   Mostly Cloudy
4:30 AM 80.6 °F 86.2 °F 75.2 °F 84% 29.68 in - West 11.5 mph - N/A   Clear
5:00 AM 80.6 °F 86.2 °F 75.2 °F 84% 29.68 in 6.2 mi West 10.4 mph - N/A   Mostly Cloudy
5:30 AM 80.6 °F 86.2 °F 75.2 °F 84% 29.68 in 6.2 mi West 9.2 mph - N/A   Mostly Cloudy
6:00 AM 81 °F - 76 °F 81% 29.68 in 9 mi West 9.2 mph - -   Haze
6:00 AM 80.6 °F 87.1 °F 77.0 °F 89% 29.68 in 6.2 mi West 9.2 mph - N/A   Mostly Cloudy
6:30 AM 81 °F - 76 °F 81% 29.69 in - West 8.1 mph - -  
6:30 AM 80.6 °F 87.1 °F 77.0 °F 89% 29.68 in 6.2 mi West 8.1 mph - N/A   Mostly Cloudy
7:00 AM 80.6 °F 87.1 °F 77.0 °F 89% 29.68 in 6.2 mi West 8.1 mph - N/A   Mostly Cloudy
7:30 AM 82.4 °F 90.9 °F 77.0 °F 84% 29.71 in 6.2 mi West 6.9 mph - N/A   Mostly Cloudy
8:00 AM 82.4 °F 90.9 °F 77.0 °F 84% 29.71 in 6.2 mi WSW 6.9 mph - N/A   Mostly Cloudy
8:30 AM 84.2 °F 94.1 °F 77.0 °F 79% 29.71 in 6.2 mi West 8.1 mph - N/A   Mostly Cloudy
9:00 AM 84 °F - 78 °F 76% 29.73 in 9 mi West 8.1 mph - -   Haze
9:00 AM 84.2 °F 94.1 °F 77.0 °F 79% 29.71 in 6.2 mi West 8.1 mph - N/A   Mostly Cloudy
9:30 AM 85 °F - 77 °F 70% 29.73 in - WSW 10.4 mph - -  
9:30 AM 84.2 °F 94.1 °F 77.0 °F 79% 29.71 in 6.2 mi WSW 10.4 mph - N/A   Mostly Cloudy
9:51 AM 82.4 °F 89.5 °F 75.2 °F 79% 29.71 in 2.5 mi West 17.3 mph - N/A Rain Rain Showers
9:55 AM 80.6 °F 86.2 °F 75.2 °F 84% 29.74 in 1.2 mi West 17.3 mph - N/A Rain Heavy Rain Showers
10:00 AM 78.8 °F - 75.2 °F 89% 29.74 in 5.0 mi West 13.8 mph - N/A Rain Rain Showers
10:30 AM 82.4 °F 90.9 °F 77.0 °F 84% 29.71 in 6.2 mi West 8.1 mph - N/A   Mostly Cloudy
11:00 AM 84.2 °F 96.1 °F 78.8 °F 84% 29.71 in 6.2 mi West 12.7 mph - N/A   Mostly Cloudy
11:30 AM 86.0 °F 96.9 °F 77.0 °F 74% 29.71 in 6.2 mi West 11.5 mph - N/A   Mostly Cloudy
11:39 AM 86.0 °F 96.9 °F 77.0 °F 74% 29.71 in 6.2 mi West 18.4 mph 34.5 mph N/A   Mostly Cloudy
11:47 AM 80.6 °F 84.6 °F 71.6 °F 74% 29.71 in 1.2 mi West 26.5 mph - N/A Rain Heavy Rain Showers
11:57 AM 78.8 °F - 73.4 °F 83% 29.71 in 3.7 mi WNW 17.3 mph - N/A Rain Rain Showers
12:00 PM 81 °F - 71 °F 66% 29.71 in 5 mi NW 15.0 mph - - Rain Light Rain Showers
12:00 PM 80.6 °F 84.6 °F 71.6 °F 74% 29.71 in 5.0 mi NW 15.0 mph - N/A Rain Rain Showers
12:30 PM 87 °F - 79 °F 70% 29.71 in - WNW 18.4 mph - -  
12:30 PM 86.0 °F 99.3 °F 78.8 °F 79% 29.71 in 6.2 mi WNW 18.4 mph - N/A   Mostly Cloudy
1:00 PM 87.8 °F 99.7 °F 77.0 °F 70% 29.68 in 6.2 mi WNW 17.3 mph - N/A   Mostly Cloudy
1:30 PM 87.8 °F 97.6 °F 75.2 °F 66% 29.68 in 6.2 mi WNW 20.7 mph - N/A   Mostly Cloudy
2:00 PM 89.6 °F 102.2 °F 77.0 °F 66% 29.68 in 6.2 mi WNW 18.4 mph - N/A   Mostly Cloudy
2:30 PM 87.8 °F 97.6 °F 75.2 °F 66% 29.65 in 6.2 mi WNW 17.3 mph - N/A   Mostly Cloudy
2:58 PM 82.4 °F 86.3 °F 69.8 °F 66% 29.65 in 3.7 mi WSW 19.6 mph - N/A Rain Rain Showers
3:00 PM 83 °F - 71 °F 58% 29.67 in 2 mi WSW 18.4 mph - - Rain Light Rain Showers
3:00 PM 82.4 °F 86.3 °F 69.8 °F 66% 29.65 in 2.5 mi WSW 18.4 mph - N/A Rain Rain Showers
3:11 PM 84.2 °F 90.9 °F 73.4 °F 70% 29.65 in 6.2 mi SW 12.7 mph - N/A   Mostly Cloudy
3:30 PM 85 °F - 74 °F 62% 29.65 in - West 19.6 mph - -  
3:30 PM 84.2 °F 90.9 °F 73.4 °F 70% 29.65 in 6.2 mi West 19.6 mph - N/A   Mostly Cloudy
4:00 PM 87.8 °F 97.6 °F 75.2 °F 66% 29.62 in 6.2 mi West 12.7 mph - N/A   Mostly Cloudy
4:30 PM 87.8 °F 95.6 °F 73.4 °F 62% 29.65 in 6.2 mi West 17.3 mph - N/A   Mostly Cloudy
5:00 PM 86.0 °F 93.4 °F 73.4 °F 66% 29.65 in 6.2 mi West 16.1 mph - N/A   Mostly Cloudy
5:30 PM 86.0 °F 96.9 °F 77.0 °F 74% 29.65 in 6.2 mi WNW 15.0 mph - N/A   Mostly Cloudy
6:00 PM 86 °F - 76 °F 65% 29.66 in 12 mi WNW 15.0 mph - -   Haze
6:06 PM 86.0 °F 95.1 °F 75.2 °F 70% 29.65 in 6.2 mi WNW 17.3 mph 29.9 mph N/A   Mostly Cloudy
6:30 PM 82 °F - 77 °F 81% 29.68 in - NW 20.7 mph - -  
6:30 PM 82.4 °F 90.9 °F 77.0 °F 84% 29.68 in 6.2 mi NW 20.7 mph - N/A   Mostly Cloudy
6:52 PM 82.4 °F 90.9 °F 77.0 °F 84% 29.68 in 6.2 mi WNW 18.4 mph - N/A   Mostly Cloudy
7:00 PM 80.6 °F 87.1 °F 77.0 °F 89% 29.68 in 6.2 mi NW 19.6 mph - N/A   Mostly Cloudy
7:30 PM 80.6 °F 86.2 °F 75.2 °F 84% 29.68 in 6.2 mi WNW 17.3 mph - N/A   Mostly Cloudy
8:00 PM 80.6 °F 86.2 °F 75.2 °F 84% 29.71 in - NW 15.0 mph - N/A   Clear
8:30 PM 80.6 °F 85.4 °F 73.4 °F 79% 29.71 in - WNW 13.8 mph - N/A   Clear
9:00 PM 82 °F - 72 °F 66% 29.71 in 19 mi West 16.1 mph - -   Partly Cloudy
9:00 PM 82.4 °F 87.2 °F 71.6 °F 70% 29.71 in - West 16.1 mph - N/A   Clear
9:30 PM 82 °F - 75 °F 75% 29.72 in - WNW 17.3 mph - -  
9:30 PM 82.4 °F 89.5 °F 75.2 °F 79% 29.71 in 6.2 mi WNW 17.3 mph - N/A   Mostly Cloudy
10:00 PM 82.4 °F 89.5 °F 75.2 °F 79% 29.71 in 6.2 mi WNW 12.7 mph - N/A   Mostly Cloudy
10:30 PM 82.4 °F 88.2 °F 73.4 °F 74% 29.74 in 6.2 mi WNW 15.0 mph - N/A   Mostly Cloudy
11:00 PM 80.6 °F 85.4 °F 73.4 °F 79% 29.74 in - WNW 12.7 mph - N/A   Clear
11:30 PM 82.4 °F 88.2 °F 73.4 °F 74% 29.74 in 6.2 mi WNW 12.7 mph - N/A   Mostly Cloudy